TimeCDT,TemperatureF,Dew PointF,Humidity,Sea Level PressureIn,VisibilityMPH,Wind Direction,Wind SpeedMPH,Gust SpeedMPH,PrecipitationIn,Events,Conditions,WindDirDegrees,DateUTC
12:56 AM,52.0,24.1,34,30.09,10.0,SSE,6.9,-,N/A,,Clear,160,2013-05-13 05:56:00
1:56 AM,52.0,23.0,32,30.08,10.0,South,9.2,-,N/A,,Clear,170,2013-05-13 06:56:00
2:56 AM,51.1,24.1,35,30.07,10.0,South,8.1,-,N/A,,Clear,180,2013-05-13 07:56:00
3:56 AM,51.1,24.1,35,30.05,10.0,South,9.2,-,N/A,,Clear,170,2013-05-13 08:56:00
4:56 AM,50.0,23.0,35,30.04,10.0,SSE,11.5,-,N/A,,Clear,160,2013-05-13 09:56:00
5:56 AM,51.1,25.0,36,30.01,10.0,South,16.1,21.9,N/A,,Clear,170,2013-05-13 10:56:00
6:56 AM,51.1,28.9,43,30.01,10.0,South,9.2,-,N/A,,Clear,170,2013-05-13 11:56:00
7:56 AM,52.0,34.0,50,29.99,10.0,South,9.2,-,N/A,,Clear,170,2013-05-13 12:56:00
8:56 AM,55.4,39.2,54,29.97,10.0,South,13.8,-,N/A,,Partly Cloudy,170,2013-05-13 13:56:00
9:56 AM,61.0,43.0,52,29.95,10.0,South,16.1,-,N/A,,Partly Cloudy,190,2013-05-13 14:56:00
10:56 AM,66.0,46.0,48,29.92,10.0,South,13.8,-,N/A,,Clear,180,2013-05-13 15:56:00
11:56 AM,70.0,48.0,46,29.88,10.0,South,17.3,24.2,N/A,,Clear,190,2013-05-13 16:56:00
12:56 PM,73.0,48.0,41,29.85,10.0,SSW,13.8,26.5,N/A,,Clear,200,2013-05-13 17:56:00
1:56 PM,78.1,48.9,36,29.82,10.0,South,19.6,27.6,N/A,,Clear,190,2013-05-13 18:56:00
3:56 PM,82.9,50.0,32,29.78,10.0,SW,11.5,21.9,N/A,,Clear,230,2013-05-13 20:56:00
4:56 PM,87.1,50.0,28,29.75,10.0,WSW,11.5,20.7,N/A,,Clear,250,2013-05-13 21:56:00
5:56 PM,88.0,46.9,24,29.74,10.0,West,9.2,18.4,N/A,,Clear,280,2013-05-13 22:56:00
6:56 PM,87.1,48.0,26,29.73,10.0,West,6.9,-,N/A,,Clear,260,2013-05-13 23:56:00
7:56 PM,84.0,50.0,31,29.73,10.0,West,5.8,-,N/A,,Clear,260,2013-05-14 00:56:00
8:56 PM,75.0,50.0,41,29.73,10.0,West,4.6,-,N/A,,Clear,270,2013-05-14 01:56:00
9:56 PM,70.0,48.9,47,29.75,10.0,West,6.9,-,N/A,,Clear,270,2013-05-14 02:56:00
10:56 PM,66.9,48.9,52,29.76,10.0,WSW,3.5,-,N/A,,Clear,250,2013-05-14 03:56:00
11:56 PM,64.0,48.9,58,29.75,10.0,WSW,3.5,-,N/A,,Clear,250,2013-05-14 04:56:00